Prosperine Airpo, Australia

2:05 PM AEST on December 03, 2016 (GMT +1000)
Whitsunday

Weather History for YBPN - April, 2014

Change the Weather History Date:

Saturday, April 5, 2014

  Actual Average Record
Temperature  
Mean Temperature 78 °F -  
Max Temperature 84 °F - - ()
Min Temperature 73 °F - - ()
Cooling Degree Days 14    
Growing Degree Days 28 (Base 50)    
Moisture  
Dew Point 72 °F    
Average Humidity 80    
Maximum Humidity 94    
Minimum Humidity 61    
Precipitation  
Precipitation 0.03 in - - ()
Sea Level Pressure  
Sea Level Pressure 29.96 in    
Wind  
Wind Speed 9 mph ()    
Max Wind Speed 15 mph    
Max Gust Speed -    
Visibility 6.8 miles    
Events      
T = Trace of Precipitation, MM = Missing Value Source: Averaged Metar Reports

Daily Weather History Graph

Daily Weather History Graph

Search for Another Location

Airport or City:

Trip Planner

Search our weather history database for the weather conditions in past years. The results will help you decide how hot, cold, wet, or windy it might be!

Date:

Astronomy

Apr. 05, 2014 Rise Set
Actual Time 6:13 AM AEST 6:02 PM AEST
Civil Twilight 5:51 AM AEST 6:25 PM AEST
Nautical Twilight 5:26 AM AEST 6:50 PM AEST
Astronomical Twilight 5:00 AM AEST 7:16 PM AEST
Moon 10:58 AM AEST (4/5) 10:20 PM AEST (4/5)
Length of Visible Light 12h 33m
Length of Day
11h 49m
Waxing Crescent, 29% of the Moon is Illuminated
Apr 5
Waxing Crescent
Apr 7
First Quarter
Apr 15
Full
Apr 22
Last Quarter
Apr 29
New

Hourly Weather History & Observations

Time (AEST) Temp. Heat Index Dew Point Humidity Pressure Visibility Wind Dir Wind Speed Gust Speed Precip Events Conditions
12:00 AM 75 °F - 72 °F 86% 29.98 in - South 8.1 mph - -  
12:00 AM 75.2 °F - 71.6 °F 89% 29.98 in 6.2 mi South 8.1 mph - N/A   Mostly Cloudy
1:00 AM 75.2 °F - 71.6 °F 89% 29.95 in 6.2 mi South 8.1 mph - N/A   Unknown
2:00 AM 75.2 °F - 71.6 °F 89% 29.95 in 6.2 mi South 9.2 mph - N/A   Scattered Clouds
3:00 AM 74 °F - 71 °F 88% 29.94 in - South 10.4 mph - -  
3:00 AM 73.4 °F - 71.6 °F 94% 29.92 in 6.2 mi South 10.4 mph - N/A   Unknown
4:00 AM 73.4 °F - 71.6 °F 94% 29.92 in 6.2 mi South 9.2 mph - N/A   Mostly Cloudy
5:00 AM 73.4 °F - 71.6 °F 94% 29.95 in 6.2 mi South 8.1 mph - N/A   Mostly Cloudy
6:00 AM 74 °F - 71 °F 89% 29.97 in - SSE 8.1 mph - -   Overcast
6:00 AM 75.2 °F - 71.6 °F 89% 29.98 in 6.2 mi SSE 9.2 mph - N/A   Overcast
7:00 AM 75.2 °F - 71.6 °F 89% 29.98 in 6.2 mi South 9.2 mph - N/A   Unknown
8:00 AM 78.8 °F - 71.6 °F 78% 29.98 in 6.2 mi SSE 9.2 mph - N/A   Unknown
9:00 AM 82 °F - 72 °F 66% 30.00 in 16 mi SE 12.7 mph - -   Partly Cloudy
9:00 AM 82.4 °F 88.2 °F 73.4 °F 74% 29.98 in 6.2 mi SE 12.7 mph - N/A   Scattered Clouds
10:00 AM 82.4 °F 87.2 °F 71.6 °F 70% 29.98 in 6.2 mi ESE 15.0 mph - N/A   Scattered Clouds
11:00 AM 82.4 °F 87.2 °F 71.6 °F 70% 29.98 in 6.2 mi ESE 13.8 mph - N/A   Scattered Clouds
12:00 PM 84 °F - 72 °F 61% 29.97 in - ESE 15.0 mph - -  
12:00 PM 84.2 °F 89.6 °F 71.6 °F 66% 29.95 in 6.2 mi ESE 15.0 mph - N/A   Mostly Cloudy
1:00 PM 84.2 °F 89.6 °F 71.6 °F 66% 29.92 in 6.2 mi ESE 15.0 mph - N/A   Scattered Clouds
2:00 PM 84.2 °F 89.6 °F 71.6 °F 66% 29.92 in 6.2 mi ESE 13.8 mph - N/A   Mostly Cloudy
3:00 PM 84 °F - 73 °F 62% 29.92 in 12 mi ESE 15.0 mph - -   Partly Cloudy
3:00 PM 84.2 °F 89.6 °F 71.6 °F 66% 29.92 in 6.2 mi ESE 15.0 mph - N/A   Scattered Clouds
4:00 PM 82.4 °F 87.2 °F 71.6 °F 70% 29.92 in 6.2 mi ESE 12.7 mph - N/A   Mostly Cloudy
5:00 PM 80.6 °F 84.6 °F 71.6 °F 74% 29.95 in 6.2 mi ESE 10.4 mph - N/A   Mostly Cloudy
6:00 PM 79 °F - 73 °F 76% 29.96 in - SE 11.5 mph - -  
6:00 PM 78.8 °F - 73.4 °F 83% 29.95 in 6.2 mi SE 11.5 mph - N/A   Mostly Cloudy
7:00 PM 78.8 °F - 73.4 °F 83% 29.95 in 6.2 mi ESE 10.4 mph - N/A   Mostly Cloudy
9:00 PM 74 °F - 72 °F 92% 29.99 in - South 5.8 mph - -  
9:00 PM 75.2 °F - 71.6 °F 89% 29.98 in 6.2 mi South 5.8 mph - N/A   Mostly Cloudy
10:00 PM 73.4 °F - 71.6 °F 94% 30.01 in 6.2 mi South 5.8 mph - N/A   Scattered Clouds
11:00 PM 73.4 °F - 71.6 °F 94% 29.98 in 6.2 mi South 6.9 mph - N/A   Scattered Clouds